Location: Poughquag
(41.6090°N, 73.6820°W)
Time: 14:02:10
(UTC-04:00)

Vanguard 3 - Pass Details

Date: 03 June 2020
Orbit: 510 x 3261 km, 33.3° (Epoch: 05 July)

Event Time Altitude Azimuth Distance (km) Brightness Sun altitude
Exits shadow 03:10:46 21° 228° (SW) 5,116 10.6 -18.5°
Maximum altitude 03:23:39 52° 165° (SSE) 2,998 9.7 -17.1°
Drops below altitude 10° 03:35:09 10° 94° (E) 4,139 11.2 -15.8°
Sets 03:37:56 0° 89° (E) 4,816 11.7 -15.5°
